Tracking 26308 objects as of 1-Dec-2022
HD Live streaming from Space Station
objects crossing your sky now

YUNHAI 3

Track YUNHAI 3 now!
10-day predictions


NORAD ID: 54235
Int'l Code: 2022-151A
Perigee: 854.7 km
Apogee: 855.9 km
Inclination: 98.8 °
Period: 101.9 minutes
Semi major axis: 7226 km
RCS: Unknown
Launch date: November 11, 2022
Source: People's Republic of China (PRC)
Launch site: Taiyaun Space Center, China (TSC)
aabbcc
Your satellite tracking list
Your tracking list is empty




NASA's NSSDC Master Catalog

Two Line Element Set (TLE):
1 54235U 22151A   22334.83309199  .00000018  00000-0  32826-4 0  9990
2 54235  98.8187 339.6217 0000868 103.9462 256.1835 14.13285411  2664
Source of the keplerian elements: AFSPC